"Pseudo-MPEC" for P11JuVG
Created 2023 Sep 24 14:22:21 UT using Find_Orb
Click here for an explanation of pseudo-MPECs
Astrometry: P11JuVG* C2023 09 14tbYp#/?#ONEl$o1`:j3WZS_[?!OaOkAFH*eK3mpqe7W[jx9%,x`2
F51 P11JuVG C2023 09 14rg!WFRbo\
Astrometry'@Jtk*k0uIjVmCIrO2aN((O
redacted;`
F51 P11JuVG C2023 09 14DO8aDOh?yc0).@XW14%T8Q]nxBFK,JE1ytTM=N0KHh]3VAHm$18X
F51 P11JuVG C2023 09 14(=-crq7L5i=No?p,SMHNO;SF'/^_8#ytAqkXDZwgw%
click\vhI#
F51 P11JuVG 3C2023 09 156x,,+
hereR3:7L,mO+AJ#2]GlZhC9K9imcF^aSjF+#`vOmiXx0)U
T14 P11JuVG 3C2023 09 15vfVBEemJ%]=B)!]\k)hHiQ6.0irmDoY!73WJ6cAXGC;)hDKkgjB$
T14 P11JuVG 3C2023 09 15RRm$E7MXl?klvLp258j65_tW)yHpiktuwATwY'U%F!LvMB.4R-I7
T14 P11JuVG KC2023 09 16''t)kJt?ELaSIt[
forXy'3KX`HfW\sd,dkg_qpPuEIuq0Nt*/R^k
M21 P11JuVG HC2023 09 16f/IWi]:b!Mlgf]9(?4SPcM4Lr=F\@Lm0d-LeaS2N?Pf5CHU2V+O)
M21 P11JuVG C2023 09 22s!cFs/(96u#]*?D]QM#[m8%oGkK,@UurLn\.br)?LfIke-w8dX_V
F51 P11JuVG C2023 09 227T$\05jx-FiJb;.(gN+39ld+0vj
explanationg4EEpK/M`%G%7A
F51 Station data: (F51) Pan-STARRS 1, Haleakala (N20.707234 W156.255910) US/Hawaii. Observers J. Bulger, T. Lowe, A. Schultz, M. Willman. Measurers K. Chambers, S. Chastel, T. de Boer, L. Denneau, J. Fairlamb, H. Flewelling, M. Huber, C.-C. Lin, E. Magnier, Y. Ramanjooloo, R. Wainscoat, R. Weryk. 1.8-m Ritchey-Chrétien + CCD. (M21) Schiaparelli Southern Observatory, Hakos (S23.236549 E16.361440) Namibia. Observers A. Aletti, F. Bellini, L. Buzzi, G. Galli. Measurer L. Buzzi. 0.36-m f/8.4 reflector + CCD. (T14) Mauna Kea-UH/Tholen NEO Follow-Up (CFHT) (N19.825252 W155.468876) US/Hawaii. Observer R. Weryk. 3.6-m Canada-France-Hawaii Telescope. Orbital elements: P11JuVG Perihelion 2023 Aug 18.81784 +/- 0.00858 TT = 19:37:41 (JD 2460175.31784) Epoch 2023 Sep 22.0 TT = JDT 2460209.5 Earth MOID: 0.1468 Ma: 0.0131 M 11.20054701 +/- 0.08 (J2000 ecliptic) AutoNEOCP n 0.32767229 +/- 0.0025 Peri. 260.38681 +/- 0.057 a 2.08373697 +/- 0.0106 Node 64.92348 +/- 0.06 e 0.4668875 +/- 0.00247 Incl. 6.05383 +/- 0.026 P 3.01 H 22.96 G 0.15 U 8.7 q 1.11086604 +/- 0.000503 Q 3.05660789 +/- 0.0207 From 11 observations 2023 Sept. 14-22; mean residual 0".12
Residuals in arcseconds: 230914 F51 .04- .01+ 230915 T14 .02- .03- 230916 M21 .09+ .20+ 230914 F51 .07+ .05+ 230915 T14 .00 .04+ 230922 F51 .22- .05+ 230914 F51 .06+ .02+ 230915 T14 .01- .00 230922 F51 .22+ .05- 230914 F51 .05- .09- 230916 M21 .27+ .28- Ephemerides (geocentric): Date (UTC) HH RA Dec delta r elong mag " sig PA ---- -------- ------------ ------------ ------ ------ ----- --- -------- 2023 09 24 14 01 10 16.042 -28 15 53.37 .20691 1.1825 147.2 21.1 .511 125 2023 09 24 15 01 10 15.859 -28 13 54.31 .20704 1.1826 147.2 21.1 .520 124 2023 09 24 16 01 10 15.671 -28 11 55.31 .20717 1.1828 147.3 21.1 .529 124 2023 09 24 17 01 10 15.480 -28 09 56.37 .20730 1.1829 147.3 21.1 .539 124 2023 09 24 18 01 10 15.285 -28 07 57.48 .20743 1.1831 147.3 21.1 .548 124 2023 09 24 19 01 10 15.087 -28 05 58.64 .20755 1.1832 147.4 21.1 .558 123 2023 09 24 20 01 10 14.884 -28 03 59.86 .20768 1.1834 147.4 21.1 .568 123 2023 09 24 21 01 10 14.679 -28 02 01.14 .20781 1.1835 147.4 21.1 .577 123 2023 09 24 22 01 10 14.469 -28 00 02.47 .20794 1.1837 147.4 21.1 .587 123 2023 09 24 23 01 10 14.256 -27 58 03.86 .20807 1.1839 147.5 21.1 .597 123 2023 09 25 00 01 10 14.039 -27 56 05.30 .20820 1.1840 147.5 21.1 .607 122 2023 09 25 01 01 10 13.819 -27 54 06.80 .20833 1.1842 147.5 21.1 .617 122 2023 09 25 02 01 10 13.595 -27 52 08.35 .20846 1.1843 147.6 21.1 .627 122 2023 09 25 03 01 10 13.367 -27 50 09.96 .20859 1.1845 147.6 21.1 .637 122 2023 09 25 04 01 10 13.136 -27 48 11.63 .20872 1.1846 147.6 21.1 .647 122 2023 09 25 05 01 10 12.902 -27 46 13.35 .20885 1.1848 147.7 21.1 .657 122 2023 09 25 06 01 10 12.664 -27 44 15.13 .20898 1.1849 147.7 21.1 .667 121 2023 09 25 07 01 10 12.422 -27 42 16.96 .20911 1.1851 147.7 21.1 .678 121 2023 09 25 08 01 10 12.177 -27 40 18.85 .20924 1.1853 147.8 21.1 .688 121 2023 09 25 09 01 10 11.928 -27 38 20.80 .20937 1.1854 147.8 21.1 .698 121 2023 09 25 10 01 10 11.676 -27 36 22.80 .20950 1.1856 147.8 21.1 .709 121 2023 09 25 11 01 10 11.421 -27 34 24.86 .20963 1.1857 147.9 21.1 .719 121 2023 09 25 12 01 10 11.162 -27 32 26.98 .20976 1.1859 147.9 21.1 .730 121 2023 09 25 13 01 10 10.900 -27 30 29.15 .20990 1.1860 147.9 21.1 .740 120 2023 09 25 14 01 10 10.634 -27 28 31.38 .21003 1.1862 147.9 21.1 .751 120 2023 09 25 15 01 10 10.365 -27 26 33.67 .21016 1.1864 148.0 21.1 .762 120 2023 09 25 16 01 10 10.093 -27 24 36.01 .21029 1.1865 148.0 21.1 .773 120 2023 09 25 17 01 10 09.818 -27 22 38.42 .21042 1.1867 148.0 21.1 .783 120 2023 09 25 18 01 10 09.539 -27 20 40.87 .21056 1.1868 148.1 21.1 .794 120 2023 09 25 19 01 10 09.256 -27 18 43.39 .21069 1.1870 148.1 21.2 .805 120 2023 09 25 20 01 10 08.971 -27 16 45.96 .21082 1.1871 148.1 21.2 .816 120 2023 09 25 21 01 10 08.682 -27 14 48.59 .21096 1.1873 148.2 21.2 .827 120 2023 09 25 22 01 10 08.390 -27 12 51.28 .21109 1.1875 148.2 21.2 .838 119 2023 09 25 23 01 10 08.095 -27 10 54.02 .21122 1.1876 148.2 21.2 .849 119 2023 09 26 00 01 10 07.796 -27 08 56.82 .21136 1.1878 148.3 21.2 .861 119 2023 09 26 01 01 10 07.494 -27 06 59.68 .21149 1.1879 148.3 21.2 .872 119 2023 09 26 02 01 10 07.190 -27 05 02.60 .21162 1.1881 148.3 21.2 .883 119 2023 09 26 03 01 10 06.881 -27 03 05.57 .21176 1.1883 148.3 21.2 .894 119 2023 09 26 04 01 10 06.570 -27 01 08.60 .21189 1.1884 148.4 21.2 .906 119 2023 09 26 05 01 10 06.256 -26 59 11.69 .21203 1.1886 148.4 21.2 .917 119 2023 09 26 06 01 10 05.938 -26 57 14.84 .21216 1.1887 148.4 21.2 .929 119 2023 09 26 07 01 10 05.618 -26 55 18.05 .21229 1.1889 148.5 21.2 .940 119 2023 09 26 08 01 10 05.294 -26 53 21.31 .21243 1.1891 148.5 21.2 .952 119 2023 09 26 09 01 10 04.967 -26 51 24.63 .21256 1.1892 148.5 21.2 .963 119 2023 09 26 10 01 10 04.637 -26 49 28.01 .21270 1.1894 148.6 21.2 .975 118 2023 09 26 11 01 10 04.304 -26 47 31.45 .21283 1.1895 148.6 21.2 .987 118 2023 09 26 12 01 10 03.968 -26 45 34.95 .21297 1.1897 148.6 21.2 1.00 118 2023 09 26 13 01 10 03.629 -26 43 38.50 .21311 1.1899 148.7 21.2 1.01 118